Time,TemperatureF,DewpointF,PressureIn,WindDirection,WindDirectionDegrees,WindSpeedMPH,WindSpeedGustMPH,Humidity,HourlyPrecipIn,Conditions,Clouds,dailyrainin,SoftwareType,DateUTC
2013-02-15 00:00:00,33.1,25.7,30.10,WSW,251,0.0,0.0,74,0.00,,,0.00,VWS V13.01,2013-02-15 05:00:00,
2013-02-15 00:05:00,33.4,27.3,30.10,WSW,251,0.0,0.0,78,0.00,,,0.00,VWS V13.01,2013-02-15 05:05:00,
2013-02-15 00:10:00,32.9,26.5,30.10,WSW,251,0.0,0.0,77,0.00,,,0.00,VWS V13.01,2013-02-15 05:10:00,
2013-02-15 00:15:00,32.5,26.1,30.10,WSW,251,0.0,0.0,77,0.00,,,0.00,VWS V13.01,2013-02-15 05:15:00,
2013-02-15 00:20:00,32.4,25.6,30.10,WSW,251,0.0,0.0,76,0.00,,,0.00,VWS V13.01,2013-02-15 05:20:00,
2013-02-15 00:25:00,32.4,25.3,30.10,WSW,251,0.0,0.0,75,0.00,,,0.00,VWS V13.01,2013-02-15 05:25:00,
2013-02-15 00:30:00,32.4,25.6,30.10,WSW,251,0.0,0.0,76,0.00,,,0.00,VWS V13.01,2013-02-15 05:30:00,
2013-02-15 00:35:00,32.7,26.3,30.10,WSW,251,0.0,0.0,77,0.00,,,0.00,VWS V13.01,2013-02-15 05:35:00,
2013-02-15 00:40:00,32.5,26.5,30.10,WSW,251,0.0,0.0,78,0.00,,,0.00,VWS V13.01,2013-02-15 05:40:00,
2013-02-15 00:45:00,32.7,26.9,30.10,WSW,251,0.0,0.0,79,0.00,,,0.00,VWS V13.01,2013-02-15 05:45:00,
2013-02-15 00:50:00,32.4,26.9,30.10,WSW,251,0.0,0.0,80,0.00,,,0.00,VWS V13.01,2013-02-15 05:50:00,
2013-02-15 00:55:00,32.7,27.2,30.10,WSW,251,0.0,0.0,80,0.00,,,0.00,VWS V13.01,2013-02-15 05:55:00,
2013-02-15 01:00:00,32.7,27.2,30.13,WSW,251,0.0,0.0,80,0.00,,,0.00,VWS V13.01,2013-02-15 06:00:00,
2013-02-15 01:05:00,32.7,27.2,30.13,WSW,251,0.0,0.0,80,0.00,,,0.00,VWS V13.01,2013-02-15 06:05:00,
2013-02-15 01:10:00,32.5,26.8,30.13,WSW,251,0.0,0.0,79,0.00,,,0.00,VWS V13.01,2013-02-15 06:10:00,
2013-02-15 01:15:00,32.9,27.4,30.13,WSW,251,0.0,0.0,80,0.00,,,0.00,VWS V13.01,2013-02-15 06:15:00,
2013-02-15 01:20:00,32.4,26.9,30.13,WSW,251,0.0,0.0,80,0.00,,,0.00,VWS V13.01,2013-02-15 06:20:00,
2013-02-15 01:25:00,32.7,27.8,30.13,WSW,251,0.0,0.0,82,0.00,,,0.00,VWS V13.01,2013-02-15 06:25:00,
2013-02-15 01:30:00,33.3,29.0,30.13,WSW,251,0.0,0.0,84,0.00,,,0.00,VWS V13.01,2013-02-15 06:30:00,
2013-02-15 01:35:00,34.2,30.4,30.13,WSW,251,0.0,0.0,86,0.00,,,0.00,VWS V13.01,2013-02-15 06:35:00,
2013-02-15 01:40:00,35.1,30.7,30.13,WSW,251,0.0,0.0,84,0.00,,,0.00,VWS V13.01,2013-02-15 06:40:00,
2013-02-15 01:45:00,36.3,28.8,30.13,WSW,251,0.0,0.0,74,0.00,,,0.00,VWS V13.01,2013-02-15 06:45:00,
2013-02-15 01:50:00,36.5,24.0,30.13,WSW,251,0.0,0.0,60,0.00,,,0.00,VWS V13.01,2013-02-15 06:50:00,
2013-02-15 01:55:00,36.5,22.7,30.13,WSW,251,0.0,0.0,57,0.00,,,0.00,VWS V13.01,2013-02-15 06:55:00,
2013-02-15 02:00:00,36.7,22.0,30.13,WSW,251,0.0,0.0,55,0.00,,,0.00,VWS V13.01,2013-02-15 07:00:00,
2013-02-15 02:05:00,36.3,21.7,30.13,WSW,251,0.0,0.0,55,0.00,,,0.00,VWS V13.01,2013-02-15 07:05:00,
2013-02-15 02:10:00,36.1,22.0,30.10,WSW,251,0.0,0.0,56,0.00,,,0.00,VWS V13.01,2013-02-15 07:10:00,
2013-02-15 02:15:00,36.1,22.0,30.10,WSW,251,0.0,0.0,56,0.00,,,0.00,VWS V13.01,2013-02-15 07:15:00,
2013-02-15 02:20:00,36.1,22.0,30.10,WSW,251,0.0,0.0,56,0.00,,,0.00,VWS V13.01,2013-02-15 07:20:00,
2013-02-15 02:25:00,35.6,21.5,30.10,WSW,251,0.0,0.0,56,0.00,,,0.00,VWS V13.01,2013-02-15 07:25:00,
2013-02-15 02:30:00,35.6,22.3,30.10,WSW,251,0.0,0.0,58,0.00,,,0.00,VWS V13.01,2013-02-15 07:30:00,
2013-02-15 02:35:00,34.9,22.0,30.10,WSW,251,0.0,0.0,59,0.00,,,0.00,VWS V13.01,2013-02-15 07:35:00,
2013-02-15 02:40:00,34.3,21.9,30.10,WSW,251,0.0,0.0,60,0.00,,,0.00,VWS V13.01,2013-02-15 07:40:00,
2013-02-15 02:45:00,34.0,22.4,30.10,WSW,251,0.0,0.0,62,0.00,,,0.00,VWS V13.01,2013-02-15 07:45:00,
2013-02-15 02:50:00,33.6,22.8,30.10,WSW,251,0.0,0.0,64,0.00,,,0.00,VWS V13.01,2013-02-15 07:50:00,
2013-02-15 02:55:00,33.4,23.3,30.10,WSW,251,0.0,0.0,66,0.00,,,0.00,VWS V13.01,2013-02-15 07:55:00,
2013-02-15 03:00:00,33.1,23.0,30.10,WSW,250,0.0,0.0,66,0.00,,,0.00,VWS V13.01,2013-02-15 08:00:00,
2013-02-15 03:05:00,32.7,23.3,30.10,WSW,251,0.0,0.0,68,0.00,,,0.00,VWS V13.01,2013-02-15 08:05:00,
2013-02-15 03:10:00,32.7,24.4,30.10,WSW,251,0.0,0.0,71,0.00,,,0.00,VWS V13.01,2013-02-15 08:10:00,
2013-02-15 03:15:00,33.1,26.7,30.10,WSW,251,0.0,0.0,77,0.00,,,0.00,VWS V13.01,2013-02-15 08:15:00,
2013-02-15 03:20:00,33.4,28.2,30.10,WSW,251,0.0,0.0,81,0.00,,,0.00,VWS V13.01,2013-02-15 08:20:00,
2013-02-15 03:25:00,33.4,28.2,30.10,WSW,251,0.0,0.0,81,0.00,,,0.00,VWS V13.01,2013-02-15 08:25:00,
2013-02-15 03:30:00,33.8,28.9,30.10,WSW,251,0.0,0.0,82,0.00,,,0.00,VWS V13.01,2013-02-15 08:30:00,
2013-02-15 03:35:00,34.3,29.4,30.10,WSW,251,0.0,0.0,82,0.00,,,0.00,VWS V13.01,2013-02-15 08:35:00,
2013-02-15 03:40:00,34.0,27.9,30.10,WSW,251,0.0,0.0,78,0.00,,,0.00,VWS V13.01,2013-02-15 08:40:00,
2013-02-15 03:45:00,33.1,26.7,30.10,WSW,251,0.0,0.0,77,0.00,,,0.00,VWS V13.01,2013-02-15 08:45:00,
2013-02-15 03:50:00,34.0,28.2,30.10,WSW,251,0.0,0.0,79,0.00,,,0.00,VWS V13.01,2013-02-15 08:50:00,
2013-02-15 03:55:00,33.1,27.6,30.10,WSW,251,0.0,0.0,80,0.00,,,0.00,VWS V13.01,2013-02-15 08:55:00,
2013-02-15 04:00:00,32.9,27.4,30.10,WSW,251,0.0,0.0,80,0.00,,,0.00,VWS V13.01,2013-02-15 09:00:00,
2013-02-15 04:05:00,33.1,28.2,30.10,WSW,251,0.0,0.0,82,0.00,,,0.00,VWS V13.01,2013-02-15 09:05:00,
2013-02-15 04:10:00,33.1,28.8,30.10,WSW,251,0.0,0.0,84,0.00,,,0.00,VWS V13.01,2013-02-15 09:10:00,
2013-02-15 04:15:00,33.1,29.1,30.10,WSW,251,0.0,0.0,85,0.00,,,0.00,VWS V13.01,2013-02-15 09:15:00,
2013-02-15 04:20:00,33.1,29.4,30.10,WSW,251,0.0,0.0,86,0.00,,,0.00,VWS V13.01,2013-02-15 09:20:00,
2013-02-15 04:25:00,33.1,29.4,30.10,WSW,251,0.0,0.0,86,0.00,,,0.00,VWS V13.01,2013-02-15 09:25:00,
2013-02-15 04:30:00,33.3,30.1,30.10,WSW,251,0.0,0.0,88,0.00,,,0.00,VWS V13.01,2013-02-15 09:30:00,
2013-02-15 04:35:00,33.8,30.9,30.10,WSW,251,0.0,0.0,89,0.00,,,0.00,VWS V13.01,2013-02-15 09:35:00,
2013-02-15 04:40:00,33.6,30.7,30.10,WSW,251,0.0,0.0,89,0.00,,,0.00,VWS V13.01,2013-02-15 09:40:00,
2013-02-15 04:45:00,33.8,30.9,30.10,WSW,251,0.0,0.0,89,0.00,,,0.00,VWS V13.01,2013-02-15 09:45:00,
2013-02-15 04:50:00,33.6,30.7,30.10,WSW,251,0.0,0.0,89,0.00,,,0.00,VWS V13.01,2013-02-15 09:50:00,
2013-02-15 04:55:00,33.6,30.7,30.10,WSW,251,0.0,0.0,89,0.00,,,0.00,VWS V13.01,2013-02-15 09:55:00,
2013-02-15 05:00:00,33.3,30.1,30.10,WSW,251,0.0,0.0,88,0.00,,,0.00,VWS V13.01,2013-02-15 10:00:00,
2013-02-15 05:05:00,33.3,30.1,30.10,WSW,251,0.0,0.0,88,0.00,,,0.00,VWS V13.01,2013-02-15 10:05:00,
2013-02-15 05:10:00,33.3,30.1,30.10,WSW,251,0.0,0.0,88,0.00,,,0.00,VWS V13.01,2013-02-15 10:10:00,
2013-02-15 05:15:00,33.3,30.1,30.10,WSW,251,0.0,0.0,88,0.00,,,0.00,VWS V13.01,2013-02-15 10:15:00,
2013-02-15 05:20:00,33.4,30.3,30.10,WSW,251,0.0,0.0,88,0.00,,,0.00,VWS V13.01,2013-02-15 10:20:00,
2013-02-15 05:25:00,33.1,29.9,30.10,WSW,251,0.0,0.0,88,0.00,,,0.00,VWS V13.01,2013-02-15 10:25:00,
2013-02-15 05:30:00,33.1,29.9,30.10,WSW,251,0.0,0.0,88,0.00,,,0.00,VWS V13.01,2013-02-15 10:30:00,
2013-02-15 05:35:00,33.1,30.2,30.10,WSW,251,0.0,0.0,89,0.00,,,0.00,VWS V13.01,2013-02-15 10:35:00,
2013-02-15 05:40:00,32.5,29.4,30.10,WSW,251,0.0,0.0,88,0.00,,,0.00,VWS V13.01,2013-02-15 10:40:00,
2013-02-15 05:45:00,32.7,29.8,30.10,WSW,251,0.0,0.0,89,0.00,,,0.00,VWS V13.01,2013-02-15 10:45:00,
2013-02-15 05:50:00,32.4,29.5,30.10,WSW,251,0.0,0.0,89,0.00,,,0.00,VWS V13.01,2013-02-15 10:50:00,
2013-02-15 05:55:00,31.6,28.8,30.10,WSW,251,0.0,0.0,89,0.00,,,0.00,VWS V13.01,2013-02-15 10:55:00,
2013-02-15 06:00:00,31.1,28.2,30.10,WSW,251,0.0,0.0,89,0.00,,,0.00,VWS V13.01,2013-02-15 11:00:00,
2013-02-15 06:05:00,30.6,27.4,30.10,WSW,250,0.0,0.0,88,0.00,,,0.00,VWS V13.01,2013-02-15 11:05:00,
2013-02-15 06:10:00,30.6,27.4,30.10,WSW,251,0.0,0.0,88,0.00,,,0.00,VWS V13.01,2013-02-15 11:10:00,
2013-02-15 06:15:00,30.2,27.1,30.10,WSW,251,0.0,0.0,88,0.00,,,0.00,VWS V13.01,2013-02-15 11:15:00,
2013-02-15 06:20:00,30.6,27.4,30.10,WSW,251,0.0,0.0,88,0.00,,,0.00,VWS V13.01,2013-02-15 11:20:00,
2013-02-15 06:25:00,30.4,27.5,30.10,WSW,251,0.0,0.0,89,0.00,,,0.00,VWS V13.01,2013-02-15 11:25:00,
2013-02-15 06:30:00,30.4,27.5,30.10,WSW,251,0.0,0.0,89,0.00,,,0.00,VWS V13.01,2013-02-15 11:30:00,
2013-02-15 06:35:00,30.2,27.4,30.10,WSW,251,0.0,0.0,89,0.00,,,0.00,VWS V13.01,2013-02-15 11:35:00,
2013-02-15 06:40:00,30.4,27.5,30.10,WSW,251,0.0,0.0,89,0.00,,,0.00,VWS V13.01,2013-02-15 11:40:00,
2013-02-15 06:45:00,30.6,28.0,30.10,WSW,251,0.0,0.0,90,0.00,,,0.00,VWS V13.01,2013-02-15 11:45:00,
2013-02-15 06:50:00,31.1,28.8,30.10,WSW,251,0.0,0.0,91,0.00,,,0.00,VWS V13.01,2013-02-15 11:50:00,
2013-02-15 06:55:00,30.4,28.1,30.13,WSW,250,0.0,0.0,91,0.00,,,0.00,VWS V13.01,2013-02-15 11:55:00,
2013-02-15 07:00:00,29.7,27.1,30.13,WSW,251,0.0,0.0,90,0.00,,,0.00,VWS V13.01,2013-02-15 12:00:00,
2013-02-15 07:05:00,30.0,27.5,30.13,WSW,251,0.0,0.0,90,0.00,,,0.00,VWS V13.01,2013-02-15 12:05:00,
2013-02-15 07:10:00,29.8,27.3,30.13,WSW,251,0.0,0.0,90,0.00,,,0.00,VWS V13.01,2013-02-15 12:10:00,
2013-02-15 07:15:00,29.8,27.5,30.13,WSW,251,0.0,0.0,91,0.00,,,0.00,VWS V13.01,2013-02-15 12:15:00,
2013-02-15 07:20:00,30.6,28.5,30.13,WSW,251,0.0,0.0,92,0.00,,,0.00,VWS V13.01,2013-02-15 12:20:00,
2013-02-15 07:25:00,30.2,28.2,30.13,WSW,251,0.0,0.0,92,0.00,,,0.00,VWS V13.01,2013-02-15 12:25:00,
2013-02-15 07:30:00,30.6,28.5,30.13,WSW,251,0.0,0.0,92,0.00,,,0.00,VWS V13.01,2013-02-15 12:30:00,
2013-02-15 07:35:00,31.3,29.5,30.13,WSW,251,0.0,0.0,93,0.00,,,0.00,VWS V13.01,2013-02-15 12:35:00,
2013-02-15 07:40:00,32.0,30.5,30.13,WSW,251,0.0,0.0,94,0.00,,,0.00,VWS V13.01,2013-02-15 12:40:00,
2013-02-15 07:45:00,32.5,31.3,30.13,WSW,251,0.0,0.0,95,0.00,,,0.00,VWS V13.01,2013-02-15 12:45:00,
2013-02-15 07:50:00,32.5,31.0,30.13,WSW,251,0.0,0.0,94,0.00,,,0.00,VWS V13.01,2013-02-15 12:50:00,
2013-02-15 07:55:00,33.6,32.1,30.13,WSW,251,0.0,0.0,94,0.00,,,0.00,VWS V13.01,2013-02-15 12:55:00,
2013-02-15 08:00:00,35.8,32.9,30.13,WSW,251,0.0,0.0,89,0.00,,,0.00,VWS V13.01,2013-02-15 13:00:00,
2013-02-15 08:05:00,39.9,32.3,30.13,WSW,251,0.0,0.0,74,0.00,,,0.00,VWS V13.01,2013-02-15 13:05:00,
2013-02-15 08:10:00,39.9,25.5,30.13,WSW,251,0.0,0.0,56,0.00,,,0.00,VWS V13.01,2013-02-15 13:10:00,
2013-02-15 08:15:00,42.6,27.1,30.13,WSW,251,0.0,0.0,54,0.00,,,0.00,VWS V13.01,2013-02-15 13:15:00,
2013-02-15 08:20:00,43.3,24.0,30.13,WSW,251,0.0,0.0,46,0.00,,,0.00,VWS V13.01,2013-02-15 13:20:00,
2013-02-15 08:25:00,46.4,25.1,30.13,WSW,251,0.0,0.0,43,0.00,,,0.00,VWS V13.01,2013-02-15 13:25:00,
2013-02-15 08:30:00,48.2,25.0,30.13,WSW,251,0.0,0.0,40,0.00,,,0.00,VWS V13.01,2013-02-15 13:30:00,
2013-02-15 08:35:00,47.8,19.4,30.13,WSW,251,0.0,0.0,32,0.00,,,0.00,VWS V13.01,2013-02-15 13:35:00,
2013-02-15 08:40:00,51.8,22.9,30.13,WSW,251,0.0,0.0,32,0.00,,,0.00,VWS V13.01,2013-02-15 13:40:00,
2013-02-15 08:45:00,53.6,22.9,30.13,WSW,251,0.0,0.0,30,0.00,,,0.00,VWS V13.01,2013-02-15 13:45:00,
2013-02-15 08:50:00,55.0,22.5,30.13,WSW,251,0.0,0.0,28,0.00,,,0.00,VWS V13.01,2013-02-15 13:50:00,
2013-02-15 08:55:00,57.4,22.8,30.13,WSW,251,0.0,0.0,26,0.00,,,0.00,VWS V13.01,2013-02-15 13:55:00,
2013-02-15 09:00:00,59.7,23.9,30.13,WSW,251,0.0,0.0,25,0.00,,,0.00,VWS V13.01,2013-02-15 14:00:00,
2013-02-15 09:05:00,59.4,22.6,30.13,WSW,251,0.0,0.0,24,0.00,,,0.00,VWS V13.01,2013-02-15 14:05:00,
2013-02-15 09:10:00,57.2,18.7,30.13,WSW,251,0.0,0.0,22,0.00,,,0.00,VWS V13.01,2013-02-15 14:10:00,
2013-02-15 09:15:00,59.9,17.6,30.16,WSW,251,0.0,0.0,19,0.00,,,0.00,VWS V13.01,2013-02-15 14:15:00,
2013-02-15 09:20:00,59.0,16.8,30.16,WSW,251,0.0,0.0,19,0.00,,,0.00,VWS V13.01,2013-02-15 14:20:00,
2013-02-15 09:25:00,57.7,15.8,30.13,WSW,251,0.0,0.0,19,0.00,,,0.00,VWS V13.01,2013-02-15 14:25:00,
2013-02-15 09:30:00,59.2,17.0,30.13,WSW,251,0.0,0.0,19,0.00,,,0.00,VWS V13.01,2013-02-15 14:30:00,
2013-02-15 09:35:00,58.5,16.4,30.13,WSW,251,0.0,0.0,19,0.00,,,0.00,VWS V13.01,2013-02-15 14:35:00,
2013-02-15 09:40:00,61.7,19.0,30.13,WSW,251,0.0,0.0,19,0.00,,,0.00,VWS V13.01,2013-02-15 14:40:00,
2013-02-15 09:45:00,61.0,14.5,30.16,WSW,251,0.0,0.0,16,0.00,,,0.00,VWS V13.01,2013-02-15 14:45:00,
2013-02-15 09:50:00,62.4,15.7,30.16,WSW,251,0.0,0.0,16,0.00,,,0.00,VWS V13.01,2013-02-15 14:50:00,
2013-02-15 09:55:00,60.1,15.1,30.16,WSW,251,0.0,0.0,17,0.00,,,0.00,VWS V13.01,2013-02-15 14:55:00,
2013-02-15 10:00:00,59.0,14.3,30.16,WSW,251,0.0,0.0,17,0.00,,,0.00,VWS V13.01,2013-02-15 15:00:00,
2013-02-15 10:05:00,59.5,14.7,30.16,SW,217,0.0,0.0,17,0.00,,,0.00,VWS V13.01,2013-02-15 15:05:00,
2013-02-15 10:10:00,66.2,17.2,30.13,SW,229,0.0,0.0,15,0.00,,,0.00,VWS V13.01,2013-02-15 15:10:00,
2013-02-15 10:15:00,66.6,17.5,30.13,WSW,249,0.0,0.0,15,0.00,,,0.00,VWS V13.01,2013-02-15 15:15:00,
2013-02-15 10:20:00,66.6,17.5,30.13,SW,231,0.0,0.0,15,0.00,,,0.00,VWS V13.01,2013-02-15 15:20:00,
2013-02-15 10:25:00,63.9,16.8,30.13,WSW,247,0.0,0.0,16,0.00,,,0.00,VWS V13.01,2013-02-15 15:25:00,
2013-02-15 10:30:00,64.6,15.9,30.13,WSW,246,0.0,0.0,15,0.00,,,0.00,VWS V13.01,2013-02-15 15:30:00,
2013-02-15 10:35:00,60.3,15.3,30.13,WSW,249,0.0,0.0,17,0.00,,,0.00,VWS V13.01,2013-02-15 15:35:00,
2013-02-15 10:40:00,62.2,15.5,30.13,WSW,243,0.0,0.0,16,0.00,,,0.00,VWS V13.01,2013-02-15 15:40:00,
2013-02-15 10:45:00,60.4,15.4,30.13,WSW,238,0.0,0.0,17,0.00,,,0.00,VWS V13.01,2013-02-15 15:45:00,
2013-02-15 10:50:00,61.5,14.9,30.13,SW,226,0.0,0.0,16,0.00,,,0.00,VWS V13.01,2013-02-15 15:50:00,
2013-02-15 10:55:00,60.3,15.3,30.13,WSW,256,0.0,0.0,17,0.00,,,0.00,VWS V13.01,2013-02-15 15:55:00,
2013-02-15 11:00:00,62.2,15.5,30.13,WSW,251,0.0,0.0,16,0.00,,,0.00,VWS V13.01,2013-02-15 16:00:00,
2013-02-15 11:05:00,66.9,17.8,30.13,SW,217,0.0,0.0,15,0.00,,,0.00,VWS V13.01,2013-02-15 16:05:00,
2013-02-15 11:10:00,66.4,17.4,30.13,SW,223,4.0,4.0,15,0.00,,,0.00,VWS V13.01,2013-02-15 16:10:00,
2013-02-15 11:15:00,66.2,17.2,30.13,WSW,239,0.0,0.0,15,0.00,,,0.00,VWS V13.01,2013-02-15 16:15:00,
2013-02-15 11:20:00,62.6,15.8,30.13,SW,232,0.0,0.0,16,0.00,,,0.00,VWS V13.01,2013-02-15 16:20:00,
2013-02-15 11:25:00,60.6,15.6,30.13,West,262,4.0,4.0,17,0.00,,,0.00,VWS V13.01,2013-02-15 16:25:00,
2013-02-15 11:30:00,62.1,15.4,30.13,West,266,0.0,0.0,16,0.00,,,0.00,VWS V13.01,2013-02-15 16:30:00,
2013-02-15 11:35:00,66.2,17.2,30.13,WSW,237,0.0,0.0,15,0.00,,,0.00,VWS V13.01,2013-02-15 16:35:00,
2013-02-15 11:40:00,64.6,15.9,30.13,West,272,0.0,0.0,15,0.00,,,0.00,VWS V13.01,2013-02-15 16:40:00,
2013-02-15 11:45:00,64.0,17.0,30.13,WSW,253,4.9,4.9,16,0.00,,,0.00,VWS V13.01,2013-02-15 16:45:00,
2013-02-15 11:49:00,63.0,16.1,30.13,SW,232,0.0,0.0,16,0.00,,,0.00,VWS V13.01,2013-02-15 16:49:00,
2013-02-15 11:54:00,63.9,16.8,30.13,WSW,237,0.0,0.0,16,0.00,,,0.00,VWS V13.01,2013-02-15 16:54:00,
2013-02-15 11:59:00,60.8,14.4,30.10,West,264,3.6,4.9,16,0.00,,,0.00,VWS V13.01,2013-02-15 16:59:00,
2013-02-15 12:04:00,62.4,15.7,30.10,SW,232,0.0,3.6,16,0.00,,,0.00,VWS V13.01,2013-02-15 17:04:00,
2013-02-15 12:09:00,68.5,19.1,30.10,SSW,198,0.0,0.0,15,0.00,,,0.00,VWS V13.01,2013-02-15 17:09:00,
2013-02-15 12:14:00,69.3,19.7,30.10,WSW,246,0.0,3.6,15,0.00,,,0.00,VWS V13.01,2013-02-15 17:14:00,
2013-02-15 12:19:00,70.2,18.8,30.10,SSW,206,0.0,0.0,14,0.00,,,0.00,VWS V13.01,2013-02-15 17:19:00,
2013-02-15 12:24:00,61.3,14.8,30.10,WNW,290,3.6,6.3,16,0.00,,,0.00,VWS V13.01,2013-02-15 17:24:00,
2013-02-15 12:29:00,62.6,15.8,30.10,WSW,244,0.0,0.0,16,0.00,,,0.00,VWS V13.01,2013-02-15 17:29:00,
2013-02-15 12:34:00,68.4,19.0,30.10,SSE,160,0.0,0.0,15,0.00,,,0.00,VWS V13.01,2013-02-15 17:34:00,
2013-02-15 12:39:00,70.3,18.9,30.10,SSE,158,5.8,5.8,14,0.00,,,0.00,VWS V13.01,2013-02-15 17:39:00,
2013-02-15 12:44:00,70.0,18.6,30.10,SSE,158,5.8,5.8,14,0.00,,,0.00,VWS V13.01,2013-02-15 17:44:00,
2013-02-15 12:49:00,63.9,16.8,30.10,SSE,158,5.8,5.8,16,0.00,,,0.00,VWS V13.01,2013-02-15 17:49:00,
2013-02-15 12:54:00,65.1,16.4,30.10,SSE,158,5.8,5.8,15,0.00,,,0.00,VWS V13.01,2013-02-15 17:54:00,
2013-02-15 12:59:00,70.2,18.8,30.10,SSE,158,5.8,5.8,14,0.00,,,0.00,VWS V13.01,2013-02-15 17:59:00,
2013-02-15 13:04:00,70.5,19.1,30.10,SSE,158,5.8,5.8,14,0.00,,,0.00,VWS V13.01,2013-02-15 18:04:00,
2013-02-15 13:09:00,69.3,19.7,30.10,SSE,158,5.8,5.8,15,0.00,,,0.00,VWS V13.01,2013-02-15 18:09:00,
2013-02-15 13:14:00,67.6,18.4,30.07,SSE,158,5.8,5.8,15,0.00,,,0.00,VWS V13.01,2013-02-15 18:14:00,
2013-02-15 13:19:00,71.1,19.5,30.07,SSE,158,5.8,5.8,14,0.00,,,0.00,VWS V13.01,2013-02-15 18:19:00,
2013-02-15 13:24:00,66.0,17.1,30.07,SSE,158,5.8,5.8,15,0.00,,,0.00,VWS V13.01,2013-02-15 18:24:00,
2013-02-15 13:29:00,68.0,18.7,30.07,SSE,158,5.8,5.8,15,0.00,,,0.00,VWS V13.01,2013-02-15 18:29:00,
2013-02-15 13:34:00,67.3,18.1,30.07,SSE,158,5.8,5.8,15,0.00,,,0.00,VWS V13.01,2013-02-15 18:34:00,
2013-02-15 13:39:00,66.9,17.8,30.07,SSE,158,5.8,5.8,15,0.00,,,0.00,VWS V13.01,2013-02-15 18:39:00,
2013-02-15 13:44:00,67.1,17.9,30.07,SSE,158,5.8,5.8,15,0.00,,,0.00,VWS V13.01,2013-02-15 18:44:00,
2013-02-15 13:49:00,63.3,16.4,30.07,SSE,158,5.8,5.8,16,0.00,,,0.00,VWS V13.01,2013-02-15 18:49:00,
2013-02-15 13:54:00,62.2,12.5,30.07,SSE,158,5.8,5.8,14,0.00,,,0.00,VWS V13.01,2013-02-15 18:54:00,
2013-02-15 13:59:00,65.5,16.6,30.04,SSE,158,5.8,5.8,15,0.00,,,0.00,VWS V13.01,2013-02-15 18:59:00,
2013-02-15 14:04:00,65.5,16.6,30.04,SSE,158,5.8,5.8,15,0.00,,,0.00,VWS V13.01,2013-02-15 19:04:00,
2013-02-15 14:09:00,65.8,16.9,30.04,SSE,158,5.8,5.8,15,0.00,,,0.00,VWS V13.01,2013-02-15 19:09:00,
2013-02-15 14:14:00,63.3,16.4,30.04,SSE,158,5.8,5.8,16,0.00,,,0.00,VWS V13.01,2013-02-15 19:14:00,
2013-02-15 14:19:00,62.6,15.8,30.04,SSE,158,5.8,5.8,16,0.00,,,0.00,VWS V13.01,2013-02-15 19:19:00,
2013-02-15 14:24:00,68.0,18.7,30.04,SSE,158,5.8,5.8,15,0.00,,,0.00,VWS V13.01,2013-02-15 19:24:00,
2013-02-15 14:29:00,69.1,19.5,30.04,WSW,252,3.6,4.0,15,0.00,,,0.00,VWS V13.01,2013-02-15 19:29:00,
2013-02-15 14:34:00,65.5,16.6,30.04,WSW,241,2.7,2.7,15,0.00,,,0.00,VWS V13.01,2013-02-15 19:34:00,
2013-02-15 14:39:00,64.9,16.2,30.04,West,264,2.7,3.1,15,0.00,,,0.00,VWS V13.01,2013-02-15 19:39:00,
2013-02-15 14:44:00,64.8,16.1,30.04,WSW,239,4.0,4.0,15,0.00,,,0.00,VWS V13.01,2013-02-15 19:44:00,
2013-02-15 14:49:00,65.8,16.9,30.04,SSW,204,2.7,2.7,15,0.00,,,0.00,VWS V13.01,2013-02-15 19:49:00,
2013-02-15 14:54:00,64.4,15.8,30.04,SSW,204,2.7,2.7,15,0.00,,,0.00,VWS V13.01,2013-02-15 19:54:00,
2013-02-15 14:59:00,65.3,16.5,30.01,West,280,3.6,3.6,15,0.00,,,0.00,VWS V13.01,2013-02-15 19:59:00,
2013-02-15 15:04:00,62.2,15.5,30.01,West,280,3.6,3.6,16,0.00,,,0.00,VWS V13.01,2013-02-15 20:04:00,
2013-02-15 15:09:00,65.3,16.5,30.01,South,185,3.1,4.0,15,0.00,,,0.00,VWS V13.01,2013-02-15 20:09:00,
2013-02-15 15:14:00,65.5,16.6,30.01,WNW,289,2.7,2.7,15,0.00,,,0.00,VWS V13.01,2013-02-15 20:14:00,
2013-02-15 15:19:00,64.0,17.0,30.01,WNW,291,5.4,5.4,16,0.00,,,0.00,VWS V13.01,2013-02-15 20:19:00,
2013-02-15 15:24:00,66.2,17.2,30.01,WNW,291,5.4,5.4,15,0.00,,,0.00,VWS V13.01,2013-02-15 20:24:00,
2013-02-15 15:29:00,63.9,16.8,30.01,WNW,291,5.4,5.4,16,0.00,,,0.00,VWS V13.01,2013-02-15 20:29:00,
2013-02-15 15:34:00,63.9,16.8,30.01,WNW,291,5.4,5.4,16,0.00,,,0.00,VWS V13.01,2013-02-15 20:34:00,
2013-02-15 15:39:00,63.9,16.8,30.01,WNW,291,5.4,5.4,16,0.00,,,0.00,VWS V13.01,2013-02-15 20:39:00,
2013-02-15 15:44:00,64.6,15.9,30.01,WNW,291,5.4,5.4,15,0.00,,,0.00,VWS V13.01,2013-02-15 20:44:00,
2013-02-15 15:49:00,63.0,16.1,30.01,West,265,5.8,5.8,16,0.00,,,0.00,VWS V13.01,2013-02-15 20:49:00,
2013-02-15 15:54:00,61.9,12.2,30.01,West,271,3.6,4.0,14,0.00,,,0.00,VWS V13.01,2013-02-15 20:54:00,
2013-02-15 15:59:00,64.9,16.2,30.01,SSW,196,0.0,0.0,15,0.00,,,0.00,VWS V13.01,2013-02-15 20:59:00,
2013-02-15 16:04:00,63.9,16.8,30.01,WSW,239,0.0,0.0,16,0.00,,,0.00,VWS V13.01,2013-02-15 21:04:00,
2013-02-15 16:09:00,65.5,16.6,30.01,SW,219,2.7,5.4,15,0.00,,,0.00,VWS V13.01,2013-02-15 21:09:00,
2013-02-15 16:14:00,64.9,16.2,30.01,SSE,153,0.0,0.0,15,0.00,,,0.00,VWS V13.01,2013-02-15 21:14:00,
2013-02-15 16:19:00,63.7,11.9,30.01,SE,146,0.0,0.0,13,0.00,,,0.00,VWS V13.01,2013-02-15 21:19:00,
2013-02-15 16:24:00,62.4,12.6,30.01,SW,229,0.0,0.0,14,0.00,,,0.00,VWS V13.01,2013-02-15 21:24:00,
2013-02-15 16:29:00,63.9,12.1,30.01,WSW,256,0.0,0.0,13,0.00,,,0.00,VWS V13.01,2013-02-15 21:29:00,
2013-02-15 16:34:00,61.7,12.1,30.01,West,270,4.9,4.9,14,0.00,,,0.00,VWS V13.01,2013-02-15 21:34:00,
2013-02-15 16:39:00,61.9,12.2,30.01,West,262,2.7,4.0,14,0.00,,,0.00,VWS V13.01,2013-02-15 21:39:00,
2013-02-15 16:44:00,64.0,12.2,30.01,SW,220,2.7,3.6,13,0.00,,,0.00,VWS V13.01,2013-02-15 21:44:00,
2013-02-15 16:49:00,63.9,12.1,30.01,West,265,4.0,4.0,13,0.00,,,0.00,VWS V13.01,2013-02-15 21:49:00,
2013-02-15 16:54:00,62.1,12.3,30.01,West,271,4.0,4.0,14,0.00,,,0.00,VWS V13.01,2013-02-15 21:54:00,
2013-02-15 16:59:00,63.5,11.8,29.98,West,261,0.0,0.0,13,0.00,,,0.00,VWS V13.01,2013-02-15 21:59:00,
2013-02-15 17:04:00,62.6,11.1,29.98,West,266,0.0,0.0,13,0.00,,,0.00,VWS V13.01,2013-02-15 22:04:00,
2013-02-15 17:09:00,61.9,12.2,29.98,WSW,244,0.0,0.0,14,0.00,,,0.00,VWS V13.01,2013-02-15 22:09:00,
2013-02-15 17:14:00,61.3,11.8,29.98,SW,220,0.0,0.0,14,0.00,,,0.00,VWS V13.01,2013-02-15 22:14:00,
2013-02-15 17:19:00,59.4,10.2,29.98,WSW,256,0.0,0.0,14,0.00,,,0.00,VWS V13.01,2013-02-15 22:19:00,
2013-02-15 17:24:00,58.5,9.5,29.98,West,264,0.0,0.0,14,0.00,,,0.00,VWS V13.01,2013-02-15 22:24:00,
2013-02-15 17:29:00,57.2,8.4,29.98,WSW,253,0.0,0.0,14,0.00,,,0.00,VWS V13.01,2013-02-15 22:29:00,
2013-02-15 17:34:00,56.8,9.7,29.98,WSW,248,0.0,0.0,15,0.00,,,0.00,VWS V13.01,2013-02-15 22:34:00,
2013-02-15 17:39:00,56.1,9.1,29.98,WSW,239,0.0,0.0,15,0.00,,,0.00,VWS V13.01,2013-02-15 22:39:00,
2013-02-15 17:44:00,56.1,9.1,29.98,WSW,250,0.0,0.0,15,0.00,,,0.00,VWS V13.01,2013-02-15 22:44:00,
2013-02-15 17:49:00,55.2,8.4,29.98,WSW,250,0.0,0.0,15,0.00,,,0.00,VWS V13.01,2013-02-15 22:49:00,
2013-02-15 17:54:00,54.5,7.8,29.98,WSW,250,0.0,0.0,15,0.00,,,0.00,VWS V13.01,2013-02-15 22:54:00,
2013-02-15 17:59:00,54.5,7.8,29.98,WSW,249,0.0,0.0,15,0.00,,,0.00,VWS V13.01,2013-02-15 22:59:00,
2013-02-15 18:04:00,54.0,7.4,29.98,WSW,249,0.0,0.0,15,0.00,,,0.00,VWS V13.01,2013-02-15 23:04:00,
2013-02-15 18:09:00,52.9,7.9,29.98,WSW,249,0.0,0.0,16,0.00,,,0.00,VWS V13.01,2013-02-15 23:09:00,
2013-02-15 18:14:00,51.6,6.9,29.98,WSW,249,0.0,0.0,16,0.00,,,0.00,VWS V13.01,2013-02-15 23:14:00,
2013-02-15 18:19:00,50.2,5.7,29.98,WSW,249,0.0,0.0,16,0.00,,,0.00,VWS V13.01,2013-02-15 23:19:00,
2013-02-15 18:24:00,50.2,5.7,29.98,WSW,249,0.0,0.0,16,0.00,,,0.00,VWS V13.01,2013-02-15 23:24:00,
2013-02-15 18:29:00,49.5,5.2,30.01,WSW,249,0.0,0.0,16,0.00,,,0.00,VWS V13.01,2013-02-15 23:29:00,
2013-02-15 18:34:00,48.6,8.2,30.01,WSW,249,0.0,0.0,19,0.00,,,0.00,VWS V13.01,2013-02-15 23:34:00,
2013-02-15 18:39:00,47.8,7.6,30.01,WSW,249,0.0,0.0,19,0.00,,,0.00,VWS V13.01,2013-02-15 23:39:00,
2013-02-15 18:44:00,47.5,7.3,30.01,WSW,249,0.0,0.0,19,0.00,,,0.00,VWS V13.01,2013-02-15 23:44:00,
2013-02-15 18:49:00,46.9,6.8,30.01,WSW,249,0.0,0.0,19,0.00,,,0.00,VWS V13.01,2013-02-15 23:49:00,
2013-02-15 18:54:00,46.8,6.7,30.01,WSW,249,0.0,0.0,19,0.00,,,0.00,VWS V13.01,2013-02-15 23:54:00,
2013-02-15 18:59:00,46.9,10.1,30.01,WSW,249,0.0,0.0,22,0.00,,,0.00,VWS V13.01,2013-02-15 23:59:00,
2013-02-15 19:04:00,47.1,10.2,30.01,WSW,249,0.0,0.0,22,0.00,,,0.00,VWS V13.01,2013-02-16 00:04:00,
2013-02-15 19:09:00,47.3,10.4,30.01,WSW,249,0.0,0.0,22,0.00,,,0.00,VWS V13.01,2013-02-16 00:09:00,
2013-02-15 19:14:00,47.8,10.9,30.01,WSW,249,0.0,0.0,22,0.00,,,0.00,VWS V13.01,2013-02-16 00:14:00,
2013-02-15 19:19:00,47.8,10.9,30.01,WSW,249,0.0,0.0,22,0.00,,,0.00,VWS V13.01,2013-02-16 00:19:00,
2013-02-15 19:24:00,47.8,10.9,30.01,WSW,249,0.0,0.0,22,0.00,,,0.00,VWS V13.01,2013-02-16 00:24:00,
2013-02-15 19:29:00,47.8,12.8,30.01,WSW,249,0.0,0.0,24,0.00,,,0.00,VWS V13.01,2013-02-16 00:29:00,
2013-02-15 19:34:00,47.7,15.3,30.01,WSW,249,0.0,0.0,27,0.00,,,0.00,VWS V13.01,2013-02-16 00:34:00,
2013-02-15 19:39:00,47.3,15.9,30.01,WSW,249,0.0,0.0,28,0.00,,,0.00,VWS V13.01,2013-02-16 00:39:00,
2013-02-15 19:44:00,47.3,15.0,30.01,WSW,249,0.0,0.0,27,0.00,,,0.00,VWS V13.01,2013-02-16 00:44:00,
2013-02-15 19:49:00,47.3,15.0,30.01,WSW,249,0.0,0.0,27,0.00,,,0.00,VWS V13.01,2013-02-16 00:49:00,
2013-02-15 19:54:00,47.5,15.2,30.01,WSW,249,0.0,0.0,27,0.00,,,0.00,VWS V13.01,2013-02-16 00:54:00,
2013-02-15 19:59:00,47.5,16.8,30.01,WSW,249,0.0,0.0,29,0.00,,,0.00,VWS V13.01,2013-02-16 00:59:00,
2013-02-15 20:04:00,47.3,15.9,30.01,WSW,249,0.0,0.0,28,0.00,,,0.00,VWS V13.01,2013-02-16 01:04:00,
2013-02-15 20:09:00,47.5,17.6,30.01,WSW,249,0.0,0.0,30,0.00,,,0.00,VWS V13.01,2013-02-16 01:09:00,
2013-02-15 20:14:00,47.3,16.7,30.01,WSW,249,0.0,0.0,29,0.00,,,0.00,VWS V13.01,2013-02-16 01:14:00,
2013-02-15 20:19:00,47.7,17.0,30.01,WSW,249,0.0,0.0,29,0.00,,,0.00,VWS V13.01,2013-02-16 01:19:00,
2013-02-15 20:24:00,47.7,17.8,30.01,WSW,249,0.0,0.0,30,0.00,,,0.00,VWS V13.01,2013-02-16 01:24:00,
2013-02-15 20:29:00,47.5,16.0,30.01,WSW,249,0.0,0.0,28,0.00,,,0.00,VWS V13.01,2013-02-16 01:29:00,
2013-02-15 20:34:00,48.4,16.0,30.01,WSW,249,0.0,0.0,27,0.00,,,0.00,VWS V13.01,2013-02-16 01:34:00,
2013-02-15 20:39:00,48.6,16.1,30.01,WSW,249,0.0,0.0,27,0.00,,,0.00,VWS V13.01,2013-02-16 01:39:00,
2013-02-15 20:44:00,48.4,16.0,30.01,WSW,249,0.0,0.0,27,0.00,,,0.00,VWS V13.01,2013-02-16 01:44:00,
2013-02-15 20:49:00,48.0,16.5,30.01,WSW,249,0.0,0.0,28,0.00,,,0.00,VWS V13.01,2013-02-16 01:49:00,
2013-02-15 20:54:00,48.6,16.1,30.01,WSW,249,0.0,0.0,27,0.00,,,0.00,VWS V13.01,2013-02-16 01:54:00,
2013-02-15 20:59:00,48.6,17.0,30.01,WSW,249,0.0,0.0,28,0.00,,,0.00,VWS V13.01,2013-02-16 01:59:00,
2013-02-15 21:04:00,48.6,17.0,30.01,WSW,249,0.0,0.0,28,0.00,,,0.00,VWS V13.01,2013-02-16 02:04:00,
2013-02-15 21:09:00,48.6,17.0,30.01,WSW,249,0.0,0.0,28,0.00,,,0.00,VWS V13.01,2013-02-16 02:09:00,
2013-02-15 21:14:00,50.5,17.8,30.04,NW,325,3.1,3.1,27,0.00,,,0.00,VWS V13.01,2013-02-16 02:14:00,
2013-02-15 21:19:00,50.9,18.1,30.04,NW,326,0.0,0.0,27,0.00,,,0.00,VWS V13.01,2013-02-16 02:19:00,
2013-02-15 21:24:00,51.4,18.6,30.04,NW,326,0.0,0.0,27,0.00,,,0.00,VWS V13.01,2013-02-16 02:24:00,
2013-02-15 21:29:00,50.4,18.5,30.04,NW,326,0.0,0.0,28,0.00,,,0.00,VWS V13.01,2013-02-16 02:29:00,
2013-02-15 21:34:00,49.1,18.2,30.04,NW,326,0.0,0.0,29,0.00,,,0.00,VWS V13.01,2013-02-16 02:34:00,
2013-02-15 21:39:00,47.8,18.7,30.04,NW,326,0.0,0.0,31,0.00,,,0.00,VWS V13.01,2013-02-16 02:39:00,
2013-02-15 21:44:00,46.6,19.7,30.04,NW,326,0.0,0.0,34,0.00,,,0.00,VWS V13.01,2013-02-16 02:44:00,
2013-02-15 21:49:00,46.0,20.6,30.04,NW,326,0.0,0.0,36,0.00,,,0.00,VWS V13.01,2013-02-16 02:49:00,
2013-02-15 21:54:00,45.3,20.6,30.04,NW,326,0.0,0.0,37,0.00,,,0.00,VWS V13.01,2013-02-16 02:54:00,
2013-02-15 21:59:00,44.8,20.1,30.04,NW,326,0.0,0.0,37,0.00,,,0.00,VWS V13.01,2013-02-16 02:59:00,
2013-02-15 22:04:00,44.6,20.6,30.04,NW,326,0.0,0.0,38,0.00,,,0.00,VWS V13.01,2013-02-16 03:04:00,
2013-02-15 22:09:00,44.8,20.7,30.04,NW,318,0.0,0.0,38,0.00,,,0.00,VWS V13.01,2013-02-16 03:09:00,
2013-02-15 22:14:00,44.2,20.3,30.07,NW,318,0.0,0.0,38,0.00,,,0.00,VWS V13.01,2013-02-16 03:14:00,
2013-02-15 22:19:00,43.7,19.8,30.07,NW,318,0.0,0.0,38,0.00,,,0.00,VWS V13.01,2013-02-16 03:19:00,
2013-02-15 22:24:00,43.5,20.2,30.07,NNW,340,0.0,0.0,39,0.00,,,0.00,VWS V13.01,2013-02-16 03:24:00,
2013-02-15 22:29:00,43.9,19.9,30.07,NNW,333,0.0,0.0,38,0.00,,,0.00,VWS V13.01,2013-02-16 03:29:00,
2013-02-15 22:34:00,44.4,20.4,30.07,NW,326,0.0,0.0,38,0.00,,,0.00,VWS V13.01,2013-02-16 03:34:00,
2013-02-15 22:39:00,44.4,20.4,30.07,NW,326,0.0,0.0,38,0.00,,,0.00,VWS V13.01,2013-02-16 03:39:00,
2013-02-15 22:44:00,44.1,20.1,30.07,North,353,0.0,0.0,38,0.00,,,0.00,VWS V13.01,2013-02-16 03:44:00,
2013-02-15 22:49:00,43.9,19.9,30.07,North,353,0.0,0.0,38,0.00,,,0.00,VWS V13.01,2013-02-16 03:49:00,
2013-02-15 22:54:00,43.7,18.5,30.07,NNW,332,2.2,2.2,36,0.00,,,0.00,VWS V13.01,2013-02-16 03:54:00,
2013-02-15 22:59:00,43.3,17.5,30.07,NNW,332,0.0,0.0,35,0.00,,,0.00,VWS V13.01,2013-02-16 03:59:00,
2013-02-15 23:04:00,43.2,17.4,30.07,NNW,332,0.0,0.0,35,0.00,,,0.00,VWS V13.01,2013-02-16 04:04:00,
2013-02-15 23:09:00,43.2,17.4,30.07,NNW,336,0.0,0.0,35,0.00,,,0.00,VWS V13.01,2013-02-16 04:09:00,
2013-02-15 23:14:00,43.0,17.2,30.07,NNW,336,0.0,0.0,35,0.00,,,0.00,VWS V13.01,2013-02-16 04:14:00,
2013-02-15 23:19:00,43.0,15.9,30.07,NNW,331,0.0,0.0,33,0.00,,,0.00,VWS V13.01,2013-02-16 04:19:00,
2013-02-15 23:24:00,42.3,16.6,30.07,NNW,331,0.0,0.0,35,0.00,,,0.00,VWS V13.01,2013-02-16 04:24:00,
2013-02-15 23:29:00,42.1,16.4,30.04,NW,318,0.0,0.0,35,0.00,,,0.00,VWS V13.01,2013-02-16 04:29:00,
2013-02-15 23:34:00,41.5,15.9,30.04,NW,318,0.0,0.0,35,0.00,,,0.00,VWS V13.01,2013-02-16 04:34:00,
2013-02-15 23:39:00,41.0,16.1,30.04,NW,318,0.0,0.0,36,0.00,,,0.00,VWS V13.01,2013-02-16 04:39:00,
2013-02-15 23:44:00,40.5,16.9,30.04,NW,318,0.0,0.0,38,0.00,,,0.00,VWS V13.01,2013-02-16 04:44:00,
2013-02-15 23:49:00,40.5,16.9,30.04,NW,318,0.0,0.0,38,0.00,,,0.00,VWS V13.01,2013-02-16 04:49:00,
2013-02-15 23:54:00,40.6,16.4,30.04,NW,318,0.0,0.0,37,0.00,,,0.00,VWS V13.01,2013-02-16 04:54:00,
2013-02-15 23:59:00,41.2,16.3,30.04,NW,316,0.0,0.0,36,0.00,,,0.00,VWS V13.01,2013-02-16 04:59:00,